Location: Asarope
(8.2500°N, 4.4833°E)
Time: 14:39:14
(UTC+00:00)

OAO 2 Rocket - Pass Details

Date: 07 June 2020
Orbit: 676 x 746 km, 35.0° (Epoch: 07 July)

Event Time Altitude Azimuth Distance (km) Brightness Sun altitude
Exits shadow 04:41:14 12° 226° (SW) 1,992 5.1 -10.4°
Maximum altitude 04:45:49 69° 143° (SE) 720 3.4 -9.3°
Drops below altitude 10° 04:50:40 10° 60° (ENE) 2,095 7.5 -8.2°
Sets 04:53:03 0° 58° (ENE) 3,007 8.9 -7.7°
